Lihue, HI

8:20 AM HST on April 28, 2017 (GMT -1000)
Lihue

Weather History for PHLI - May, 2013

Change the Weather History Date:

Tuesday, May 14, 2013

  Actual Average Record
Temperature  
Mean Temperature 78 °F 76 °F  
Max Temperature 82 °F 81 °F 87 °F (1981)
Min Temperature 74 °F 70 °F 63 °F (1952)
Degree Days  
Heating Degree Days 0 0  
Month to date heating degree days 0 0  
Since 1 July heating degree days 0 0  
Cooling Degree Days 13 11  
Month to date cooling degree days 122 141  
Year to date cooling degree days 884 1045  
Growing Degree Days 27 (Base 50)    
Moisture  
Dew Point 70 °F    
Average Humidity 78    
Maximum Humidity 87    
Minimum Humidity 69    
Precipitation  
Precipitation 0.00 in 0.07 in 1.60 in (1993)
Month to date precipitation 0.22 1.07  
Year to date precipitation 14.44 14.84  
Snow  
Snow 0.00 in - - ()
Month to date snowfall 0.0  
Since 1 July snowfall 0.0  
Snow Depth 0.00 in    
Sea Level Pressure  
Sea Level Pressure 30.11 in    
Wind  
Wind Speed 15 mph (ENE)    
Max Wind Speed 20 mph    
Max Gust Speed 23 mph    
Visibility 10 miles    
Events      
T = Trace of Precipitation, MM = Missing Value Source: NWS Daily Summary

Daily Weather History Graph

Daily Weather History Graph

Search for Another Location

Airport or City:

Trip Planner

Search our weather history database for the weather conditions in past years. The results will help you decide how hot, cold, wet, or windy it might be!

Date:

Astronomy

May. 14, 2013 Rise Set
Actual Time 5:58 AM HST 7:09 PM HST
Civil Twilight 5:34 AM HST 7:33 PM HST
Nautical Twilight 5:05 AM HST 8:01 PM HST
Astronomical Twilight 4:36 AM HST 8:31 PM HST
Moon 9:46 AM HST (5/14) 11:08 PM HST (5/14)
Length of Visible Light 13h 59m
Length of Day
13h 11m
Waxing Crescent, 20% of the Moon is Illuminated
May 14
Waxing Crescent
May 17
First Quarter
May 24
Full
May 31
Last Quarter
Jun 8
New

Hourly Weather History & Observations

Time (HST) Temp. Heat Index Dew Point Humidity Pressure Visibility Wind Dir Wind Speed Gust Speed Precip Events Conditions
12:27 AM 75.2 °F - 69.8 °F 83% 30.10 in 10.0 mi ENE 18.4 mph - N/A   Overcast
12:42 AM 75.2 °F - 69.8 °F 83% 30.11 in 10.0 mi ENE 17.3 mph - N/A   Overcast
12:53 AM 75.0 °F - 69.1 °F 82% 30.10 in 10.0 mi ENE 16.1 mph - N/A   Overcast
1:07 AM 75.2 °F - 69.8 °F 83% 30.10 in 10.0 mi ENE 13.8 mph - N/A   Overcast
1:27 AM 75.2 °F - 69.8 °F 83% 30.10 in 10.0 mi ENE 16.1 mph 21.9 mph N/A   Overcast
1:53 AM 75.0 °F - 69.1 °F 82% 30.08 in 10.0 mi ENE 18.4 mph - N/A   Overcast
2:53 AM 73.9 °F - 70.0 °F 87% 30.07 in 10.0 mi ENE 13.8 mph - N/A   Mostly Cloudy
3:03 AM 73.4 °F - 69.8 °F 88% 30.08 in 10.0 mi ENE 13.8 mph - N/A   Mostly Cloudy
3:11 AM 73.4 °F - 69.8 °F 88% 30.07 in 10.0 mi ENE 13.8 mph - N/A   Scattered Clouds
3:16 AM 73.4 °F - 69.8 °F 88% 30.07 in 10.0 mi ENE 15.0 mph - N/A   Mostly Cloudy
3:26 AM 73.4 °F - 69.8 °F 88% 30.07 in 10.0 mi East 12.7 mph - N/A   Scattered Clouds
3:53 AM 73.9 °F - 69.1 °F 85% 30.06 in 10.0 mi East 16.1 mph - N/A   Scattered Clouds
4:53 AM 73.9 °F - 69.1 °F 85% 30.06 in 10.0 mi East 11.5 mph - N/A   Scattered Clouds
5:53 AM 73.9 °F - 69.1 °F 85% 30.08 in 10.0 mi ENE 15.0 mph - N/A   Scattered Clouds
6:18 AM 75.2 °F - 69.8 °F 83% 30.09 in 10.0 mi ENE 16.1 mph - N/A   Mostly Cloudy
6:53 AM 75.0 °F - 69.1 °F 82% 30.09 in 10.0 mi East 16.1 mph - N/A   Partly Cloudy
7:53 AM 77.0 °F - 71.1 °F 82% 30.11 in 10.0 mi ENE 15.0 mph - N/A   Overcast
8:53 AM 78.1 °F - 70.0 °F 76% 30.12 in 10.0 mi ENE 15.0 mph - N/A   Overcast
9:53 AM 78.1 °F - 71.1 °F 79% 30.13 in 10.0 mi ENE 12.7 mph - N/A   Mostly Cloudy
10:53 AM 80.1 °F 83.2 °F 70.0 °F 71% 30.12 in 10.0 mi East 16.1 mph - N/A   Mostly Cloudy
11:53 AM 81.0 °F 84.4 °F 70.0 °F 69% 30.12 in 10.0 mi ENE 15.0 mph - N/A   Mostly Cloudy
12:53 PM 81.0 °F 84.4 °F 70.0 °F 69% 30.12 in 10.0 mi NE 12.7 mph - N/A   Scattered Clouds
1:17 PM 80.6 °F 84.6 °F 71.6 °F 74% 30.12 in 10.0 mi ENE 13.8 mph - N/A   Mostly Cloudy
1:24 PM 80.6 °F 83.9 °F 69.8 °F 70% 30.12 in 10.0 mi ENE 11.5 mph - N/A   Scattered Clouds
1:53 PM 81.0 °F 84.9 °F 71.1 °F 72% 30.11 in 10.0 mi NE 12.7 mph - N/A   Mostly Cloudy
2:53 PM 81.0 °F 84.9 °F 71.1 °F 72% 30.10 in 10.0 mi NE 13.8 mph - N/A   Scattered Clouds
3:53 PM 80.1 °F 83.2 °F 70.0 °F 71% 30.09 in 10.0 mi NE 15.0 mph - N/A   Scattered Clouds
4:42 PM 78.8 °F - 69.8 °F 74% 30.11 in 10.0 mi NE 15.0 mph - N/A   Mostly Cloudy
4:53 PM 79.0 °F - 70.0 °F 74% 30.10 in 10.0 mi NE 16.1 mph - N/A   Mostly Cloudy
5:53 PM 78.1 °F - 70.0 °F 76% 30.11 in 10.0 mi NE 11.5 mph - N/A   Mostly Cloudy
6:22 PM 77.0 °F - 69.8 °F 78% 30.12 in 10.0 mi NE 15.0 mph - N/A   Mostly Cloudy
6:53 PM 75.9 °F - 69.1 °F 79% 30.11 in 10.0 mi NE 12.7 mph - N/A   Overcast
7:53 PM 75.9 °F - 69.1 °F 79% 30.13 in 10.0 mi ENE 13.8 mph - N/A   Mostly Cloudy
8:53 PM 75.9 °F - 69.1 °F 79% 30.14 in 10.0 mi NE 12.7 mph - N/A   Overcast
9:11 PM 75.2 °F - 69.8 °F 83% 30.15 in 10.0 mi NE 11.5 mph - N/A   Overcast
9:42 PM 75.2 °F - 69.8 °F 83% 30.15 in 10.0 mi ENE 11.5 mph - N/A   Mostly Cloudy
9:53 PM 75.9 °F - 69.1 °F 79% 30.15 in 10.0 mi NE 12.7 mph - N/A   Overcast
10:41 PM 75.2 °F - 69.8 °F 83% 30.17 in 10.0 mi ENE 12.7 mph - N/A   Overcast
10:53 PM 75.9 °F - 69.1 °F 79% 30.16 in 10.0 mi NE 13.8 mph - N/A   Overcast
11:21 PM 75.2 °F - 69.8 °F 83% 30.16 in 10.0 mi ENE 11.5 mph - N/A   Mostly Cloudy
11:29 PM 75.2 °F - 69.8 °F 83% 30.16 in 10.0 mi ENE 13.8 mph - N/A   Overcast
11:53 PM 75.0 °F - 68.0 °F 79% 30.15 in 10.0 mi ENE 12.7 mph - N/A   Scattered Clouds